Location: Arrien
(42.8963°N, 1.0429°E)
Time: 10:01:02
(UTC+00:00)

ISS - Pass Details

Date: 19 February 2026
Orbit: 416 x 426 km, 51.6° (Epoch: 10 March)

Event Time Altitude Azimuth Distance (km) Brightness Sun altitude
Exits shadow 04:42:41 28° 29° (NNE) 809 -2.0 -23.5°
Drops below altitude 10° 04:44:36 10° 48° (NE) 1,495 -0.3 -23.2°
Sets 04:46:45 0° 55° (NE) 2,359 1.0 -22.8°
